Tracking 29892 objects as of 21-Nov-2024
HD Live streaming from Space Station
objects crossing your sky now

NOAA 16 DEB

Track NOAA 16 DEB now!
10-day predictions


NORAD ID: 41711
Int'l Code: 2000-055PR
Perigee: 773.5 km
Apogee: 791.9 km
Inclination: 98.8 °
Period: 100.4 minutes
Semi major axis: 7153 km
RCS: Unknown
Launch date: September 21, 2000
Source: United States (US)
Launch site: AIR FORCE WESTERN TEST RANGE (AFWTR)

Note: This is SATELLITE DEBRIS
Your satellite tracking list
Your tracking list is empty




NASA's NSSDC Master Catalog

Two Line Element Set (TLE):
1 41711U 00055PR  24325.22833926  .00013009  00000-0  45841-2 0  9992
2 41711  98.7831  63.9313 0012868 100.7285 259.5349 14.34861485445368
Source of the keplerian elements: AFSPC